| time (UTC) | temp C | wind direction | speed KPH | gust KPH | rain 1hr cm | rain 24hr cm | rain mn cm | humidity % | barometer mb |
| 20260506014558 | 16 | 0 | 0.0 | 8.0 | 0.00 | 0.00 | 0.00 | 64 | 1008.4 |
| 20260506013055 | 16 | 0 | 1.6 | 4.8 | 0.00 | 0.00 | 0.00 | 64 | 1008.3 |
| 20260506011556 | 16 | 0 | 0.0 | 3.2 | 0.00 | 0.00 | 0.00 | 63 | 1008.2 |
| 20260506010056 | 17 | 360 | 0.0 | 6.4 | 0.00 | 0.00 | 0.00 | 63 | 1008.0 |
| 20260506004554 | 17 | 360 | 1.6 | 8.0 | 0.00 | 0.00 | 0.00 | 62 | 1007.9 |
| 20260506003054 | 17 | 360 | 4.8 | 9.7 | 0.00 | 0.00 | 0.00 | 62 | 1007.8 |
| 20260506001551 | 17 | 0 | 1.6 | 6.4 | 0.00 | 0.00 | 0.00 | 61 | 1007.1 |
| 20260506000055 | 18 | 360 | 1.6 | 9.7 | 0.00 | 0.00 | 0.00 | 60 | 1006.7 |
| 20260505234555 | 18 | 0 | 1.6 | 4.8 | 0.00 | 0.00 | 0.00 | 60 | 1006.1 |
| 20260505233053 | 18 | 360 | 0.0 | 12.9 | 0.00 | 0.00 | 0.00 | 61 | 1006.2 |
| 20260505231602 | 17 | 360 | 3.2 | 19.3 | 0.00 | 0.00 | 0.00 | 61 | 1006.3 |
| 20260505230059 | 17 | 360 | 8.0 | 25.7 | 0.00 | 0.00 | 0.00 | 63 | 1006.6 |
| 20260505224554 | 17 | 360 | 12.9 | 29.0 | 0.00 | 0.00 | 0.00 | 61 | 1004.8 |
| 20260505223056 | 17 | 360 | 9.7 | 30.6 | 0.00 | 0.00 | 0.00 | 61 | 1004.6 |
| 20260505221554 | 17 | 360 | 11.3 | 30.6 | 0.00 | 0.00 | 0.00 | 61 | 1004.6 |
| 20260505220055 | 17 | 360 | 12.9 | 32.2 | 0.00 | 0.00 | 0.00 | 61 | 1004.4 |
| 20260505214556 | 17 | 360 | 12.9 | 29.0 | 0.00 | 0.00 | 0.00 | 62 | 1004.4 |
| 20260505213104 | 17 | 360 | 14.5 | 30.6 | 0.00 | 0.00 | 0.00 | 62 | 1004.2 |
| 20260505211557 | 17 | 360 | 8.0 | 29.0 | 0.00 | 0.00 | 0.00 | 62 | 1004.2 |
| 20260505210055 | 17 | 360 | 8.0 | 27.4 | 0.00 | 0.00 | 0.00 | 60 | 1004.2 |
| 20260505204554 | 18 | 360 | 11.3 | 30.6 | 0.00 | 0.00 | 0.00 | 59 | 1004.0 |
| 20260505203100 | 18 | 360 | 14.5 | 33.8 | 0.00 | 0.00 | 0.00 | 59 | 1004.2 |
| 20260505201552 | 18 | 360 | 11.3 | 22.5 | 0.00 | 0.00 | 0.00 | 59 | 1004.2 |
| 20260505200049 | 18 | 360 | 8.0 | 27.4 | 0.00 | 0.00 | 0.00 | 59 | 1004.3 |
| 20260505194551 | 18 | 360 | 12.9 | 30.6 | 0.00 | 0.00 | 0.00 | 60 | 1004.6 |
| 20260505193055 | 18 | 360 | 14.5 | 29.0 | 0.00 | 0.00 | 0.00 | 59 | 1004.7 |
| 20260505191610 | 18 | 360 | 11.3 | 32.2 | 0.00 | 0.00 | 0.00 | 58 | 1004.9 |
| 20260505190052 | 20 | 190 | 12.9 | 35.4 | 0.00 | 0.00 | 0.00 | 57 | 1005.1 |
| 20260505184555 | 20 | 210 | 19.3 | 33.8 | 0.00 | 0.00 | 0.00 | 55 | 1005.2 |
| 20260505183054 | 20 | 360 | 6.4 | 30.6 | 0.00 | 0.00 | 0.00 | 56 | 1005.3 |
| 20260505181556 | 20 | 360 | 6.4 | 24.1 | 0.00 | 0.00 | 0.00 | 56 | 1005.4 |
| 20260505180104 | 20 | 360 | 9.7 | 20.9 | 0.00 | 0.00 | 0.00 | 57 | 1005.7 |
| 20260505174604 | 19 | 360 | 12.9 | 27.4 | 0.00 | 0.00 | 0.00 | 57 | 1005.7 |
| 20260505173052 | 20 | 360 | 9.7 | 27.4 | 0.00 | 0.00 | 0.00 | 55 | 1006.0 |
| 20260505171552 | 20 | 181 | 12.9 | 27.4 | 0.00 | 0.00 | 0.00 | 54 | 1006.1 |
| 20260505170052 | 21 | 360 | 14.5 | 24.1 | 0.00 | 0.00 | 0.00 | 53 | 1006.2 |
| 20260505164552 | 21 | 360 | 4.8 | 17.7 | 0.00 | 0.00 | 0.00 | 54 | 1006.6 |
| 20260505163052 | 20 | 360 | 3.2 | 16.1 | 0.00 | 0.00 | 0.00 | 55 | 1006.9 |
| 20260505161555 | 20 | 360 | 6.4 | 16.1 | 0.00 | 0.00 | 0.00 | 54 | 1007.3 |
| 20260505153050 | 20 | 360 | 4.8 | 9.7 | 0.00 | 0.00 | 0.00 | 56 | 1007.7 |
| 20260505151558 | 18 | 360 | 3.2 | 12.9 | 0.00 | 0.00 | 0.00 | 60 | 1008.1 |
| 20260505124553 | 15 | 178 | 1.6 | 9.7 | 0.00 | 0.00 | 0.00 | 66 | 1007.8 |
| 20260505123101 | 13 | 180 | 4.8 | 11.3 | 0.00 | 0.00 | 0.00 | 68 | 1007.9 |
| 20260505121556 | 12 | 0 | 3.2 | 14.5 | 0.00 | 0.00 | 0.00 | 69 | 1007.9 |
| 20260505120054 | 12 | 360 | 3.2 | 12.9 | 0.00 | 0.00 | 0.00 | 71 | 1008.0 |
| 20260505114555 | 11 | 360 | 3.2 | 9.7 | 0.00 | 0.00 | 0.00 | 72 | 1008.4 |
| 20260505113055 | 11 | 360 | 4.8 | 12.9 | 0.00 | 0.00 | 0.00 | 74 | 1008.7 |
| 20260505111555 | 10 | 360 | 0.0 | 9.7 | 0.00 | 0.00 | 0.00 | 75 | 1008.5 |
| 20260505101609 | 9 | 360 | 0.0 | 3.2 | 0.00 | 0.00 | 0.00 | 76 | 1008.3 |
| 20260505100105 | 9 | 0 | 0.0 | 0.0 | 0.00 | 0.00 | 0.00 | 75 | 1008.2 |
| 20260505094556 | 9 | 0 | 0.0 | 1.6 | 0.00 | 0.00 | 0.00 | 74 | 1008.3 |
| 20260505093104 | 10 | 0 | 0.0 | 3.2 | 0.00 | 0.00 | 0.00 | 73 | 1008.2 |
| 20260505091555 | 10 | 0 | 0.0 | 4.8 | 0.00 | 0.00 | 0.00 | 72 | 1008.3 |
| 20260505090108 | 10 | 0 | 0.0 | 4.8 | 0.00 | 0.00 | 0.00 | 69 | 1008.3 |
| 20260505084605 | 11 | 360 | 1.6 | 6.4 | 0.00 | 0.00 | 0.00 | 66 | 1008.6 |
| 20260505083053 | 11 | 360 | 1.6 | 4.8 | 0.00 | 0.00 | 0.00 | 64 | 1008.4 |
| 20260505081609 | 12 | 360 | 0.0 | 3.2 | 0.00 | 0.00 | 0.00 | 63 | 1008.5 |
| 20260505074557 | 12 | 360 | 1.6 | 6.4 | 0.00 | 0.00 | 0.00 | 61 | 1008.6 |
| 20260505073100 | 12 | 360 | 3.2 | 12.9 | 0.00 | 0.00 | 0.00 | 61 | 1008.6 |
| 20260505071556 | 12 | 360 | 1.6 | 9.7 | 0.00 | 0.00 | 0.00 | 60 | 1008.6 |
| 20260505070057 | 13 | 360 | 3.2 | 17.7 | 0.00 | 0.00 | 0.00 | 59 | 1008.4 |
| 20260505064550 | 13 | 360 | 4.8 | 12.9 | 0.00 | 0.00 | 0.00 | 58 | 1008.4 |
| 20260505063109 | 13 | 360 | 3.2 | 8.0 | 0.00 | 0.00 | 0.00 | 58 | 1008.3 |
| 20260505061552 | 13 | 360 | 3.2 | 16.1 | 0.00 | 0.00 | 0.00 | 57 | 1008.4 |
| 20260505060054 | 13 | 360 | 3.2 | 17.7 | 0.00 | 0.00 | 0.00 | 56 | 1008.5 |
| 20260505054552 | 14 | 360 | 3.2 | 16.1 | 0.00 | 0.00 | 0.00 | 55 | 1008.5 |
| 20260505053051 | 14 | 360 | 4.8 | 12.9 | 0.00 | 0.00 | 0.00 | 55 | 1008.4 |
| 20260505051556 | 14 | 360 | 3.2 | 9.7 | 0.00 | 0.00 | 0.00 | 54 | 1008.4 |
| 20260505041554 | 15 | 360 | 4.8 | 16.1 | 0.00 | 0.00 | 0.00 | 54 | 1008.1 |
| 20260505040052 | 15 | 360 | 4.8 | 19.3 | 0.00 | 0.00 | 0.00 | 54 | 1007.9 |
| 20260505034553 | 14 | 360 | 3.2 | 9.7 | 0.00 | 0.00 | 0.00 | 56 | 1007.9 |
| 20260505033052 | 14 | 360 | 3.2 | 12.9 | 0.00 | 0.00 | 0.00 | 57 | 1007.8 |
| 20260505031553 | 13 | 360 | 3.2 | 14.5 | 0.00 | 0.00 | 0.00 | 58 | 1007.9 |
| 20260505030052 | 13 | 360 | 3.2 | 16.1 | 0.00 | 0.00 | 0.00 | 61 | 1007.8 |
| 20260505024554 | 12 | 360 | 1.6 | 4.8 | 0.00 | 0.00 | 0.00 | 64 | 1007.9 |
| 20260505023058 | 12 | 360 | 0.0 | 4.8 | 0.00 | 0.00 | 0.00 | 64 | 1007.7 |
| 20260505021554 | 12 | 360 | 0.0 | 8.0 | 0.00 | 0.00 | 0.00 | 63 | 1007.5 |
| 20260505020056 | 12 | 360 | 1.6 | 9.7 | 0.00 | 0.00 | 0.00 | 63 | 1007.5 |